Regional Weather Roundup
Issued by NWS

Home | Current Version | Previous Version | Text Only | Print | Product List | Glossary Off
Versions: 1 2 3 4 5 6 7 8 9 10 11 12 13 14 15 16 17 18 19 20 21 22 23 24 25 26 27 28 29 30 31 32 33 34 35 36 37 38 39 40 41 42 43 44 45 46 47 48 49 50

000
ASUS43 KDTX 251710
RWRMI
MICHIGAN HOURLY REGIONAL WEATHER ROUNDUP
NATIONAL WEATHER SERVICE DETROIT/PONTIAC MI
ISSUED BY NATIONAL WEATHER SERVICE GRAND RAPIDS MI
100 PM EDT SUN JUN 25 2017

NOTE: "FAIR" INDICATES FEW OR NO CLOUDS BELOW 12,000 FEET WITH NO
SIGNIFICANT WEATHER AND/OR OBSTRUCTION TO VISIBILITY.

MIZ047>049-052>055-059>063-066>070-074>076-081>083-251800-
SOUTHEAST LOWER MICHIGAN

CITY           SKY/WX    TMP DP  RH WIND       PRES   REMARKS
ADRIAN         PTSUNNY   67  45  45 NW14G25   30.07S
ALMA           CLOUDY    59  53  79 SW9G20    30.02R
ANN ARBOR      PTSUNNY   69  50  50 W13       30.03S
BAD AXE        PTSUNNY   65  51  61 W15       29.98F
DETROIT CITY   MOSUNNY   70  46  42 NW14G21   30.01S
DETROIT        PTSUNNY   71  47  42 NW15G23   30.04R
FLINT          CLOUDY    64  48  56 W14       30.02R
GROSSE ILE     MOSUNNY   69  45  43 W10G20    30.02S
HILLSDALE      PTSUNNY   66  45  45 W14G23    30.06S
HOWELL         PTSUNNY   67  45  45 W15G21    30.03S

CITY           SKY/WX    TMP DP  RH WIND       PRES   REMARKS
JACKSON        PTSUNNY   67  46  47 W12G22    30.05S
LANSING        PTSUNNY   68  45  43 W18G30    30.03S
MASON          PTSUNNY   66  48  51 W15G22    30.04S
MONROE         MOSUNNY   69  48  47 W17G23    30.04S
MT. CLEMENS    MOSUNNY   69  48  45 NW20      29.99S
PONTIAC        PTSUNNY   65  46  50 W16       30.02R
PORT HOPE        N/A     64  51  62 W9        29.96S
PORT HURON     PTSUNNY   66  46  48 W9G20     30.00S
TRI CITIES     LGT RAIN  60  55  83 W9        30.01R
YPSILANTI      MOSUNNY   72  47  40 W17G28    30.03S
$$
MIZ043>046-050>051-056>058-064>065-071>073-077>080-251800-
SOUTHWEST LOWER MICHIGAN

CITY           SKY/WX    TMP DP  RH WIND       PRES   REMARKS
BATTLE CREEK   PTSUNNY   67  47  48 W20G25    30.07R
BENTON HARBOR  SUNNY     69  48  47 W20       30.10R
BIG RAPIDS     CLOUDY    61  49  65 W14G23    30.00S
COLDWATER      PTSUNNY   68  44  41 W13G21    30.07S
HOLLAND        SUNNY     66  52  60 W21G29    30.07S
GRAND RAPIDS   CLOUDY    64  50  60 W17G30    30.04R
KALAMAZOO      PTSUNNY   69  45  41 W13G25    30.08R
MARSHALL       CLOUDY    67  46  47 W9G26     30.06R
MOUNT PLEASANT MOSUNNY   61  52  70 NW5       29.99F
MUSKEGON       MOSUNNY   66  52  60 W21       30.05R
STURGIS        PTSUNNY   68  47  46 W13G22    30.08S
$$
MIZ016>042-251800-
NORTHERN LOWER MICHIGAN

CITY           SKY/WX    TMP DP  RH WIND       PRES   REMARKS
ALPENA         LGT RAIN  65  57  75 N7        29.94S
BEAVER ISLAND  CLOUDY    61  52  72 W6        29.98S
BELLAIRE       MOSUNNY   62  50  63 NW10      29.97S
CADILLAC       CLOUDY    60  54  80 SW12      29.97F
CHARLEVOIX     CLOUDY    58  54  85 W10       30.00S
GAYLORD        PTSUNNY   62  50  64 W6        29.95F
HOUGHTON LAKE  PTSUNNY   62  50  64 SW10      29.98S
MANISTEE       CLOUDY    60  53  77 NW13      30.00R
OSCODA         PTSUNNY   67  48  51 W9G18     29.94F
PELLSTON       CLOUDY    63  50  62 NW10      29.96R
TRAVERSE CITY  LGT RAIN  58  54  86 NW10      29.98R FOG
LUDINGTON      CLOUDY    60  53  76 W5G17     30.01S
$$
MIZ007>008-015-251800-
EASTERN UPPER MICHIGAN

CITY           SKY/WX    TMP DP  RH WIND       PRES   REMARKS
KINROSS        PTSUNNY   62  50  64 VRB6      29.94F
MACKINAC ISLAN PTSUNNY   62  54  73 N9        29.95F
NEWBERRY       MOSUNNY   62  52  69 N6        29.96F
S. S. MARIE    SUNNY     65  53  65 VRB5      29.92F
$$
MIZ004>006-011>014-085-251800-
CENTRAL UPPER MICHIGAN

CITY           SKY/WX    TMP DP  RH WIND       PRES   REMARKS
MANISTIQUE     CLOUDY    60  53  78 N7        29.98S
ESCANABA       PTSUNNY   64  53  67 CALM      29.97F
MENOMINEE      PTSUNNY   64  53  67 N7        30.00S
SAWYER-GWINN   PTSUNNY  N/A N/A N/A N14       30.00R
$$
MIZ001>003-009>011-084-251800-
WESTERN UPPER MICHIGAN

CITY           SKY/WX    TMP DP  RH WIND       PRES   REMARKS
IRON MOUNTAIN  PTSUNNY   64  50  60 NW13      30.00S
HOUGHTON       PTSUNNY   61  52  72 W12       30.00R
COPPER HARBOR    N/A     48  46  93 N15       30.01R
IRONWOOD       CLOUDY    58  53  84 N7        30.03F
$$

ABBREVIATIONS USED IN REMARKS
   TC - TEMPERATURE IN CELSIUS
  WCI - WIND CHILL INDEX
   HX - HEAT INDEX
  VSB - VISIBILITY





USA.gov is the U.S. government's official web portal to all federal, state and local government web resources and services.